This is the latest recevied weather packets stored in our database for station/object KO4LCK. If no packets are shown the sender has not sent any weather packets the latest 10 day(s).
| Time | Temp. | Humidity | Pressure | Rain* | Wind** | Luminosity | Snow |
|---|---|---|---|---|---|---|---|
| 1777840250 | 22.78° C | 32% | 1019.1 hPa | 0 mm | - | 587 W/m² | - |
| 1777839947 | 23.33° C | 33% | 1019.3 hPa | 0 mm | - | 605 W/m² | - |
| 1777839645 | 22.78° C | 36% | 1019.3 hPa | 0 mm | - | 619 W/m² | - |
| 1777839343 | 22.78° C | 33% | 1019.4 hPa | 0 mm | - | 634 W/m² | - |
| 1777839040 | 22.22° C | 35% | 1019.3 hPa | 0 mm | - | 646 W/m² | - |
| 1777838731 | 22.78° C | 37% | 1019.6 hPa | 0 mm | - | 657 W/m² | - |
| 1777838427 | 22.78° C | 33% | 1019.6 hPa | 0 mm | - | 672 W/m² | - |
| 1777838125 | 22.78° C | 36% | 1019.6 hPa | 0 mm | - | 684 W/m² | - |
| 1777837821 | 22.78° C | 34% | 1019.9 hPa | 0 mm | - | 691 W/m² | - |
| 1777837518 | 22.78° C | 35% | 1019.8 hPa | 0 mm | - | 705 W/m² | - |
| 1777837218 | 23.33° C | 31% | 1019.9 hPa | 0 mm | - | 712 W/m² | - |
| 1777836914 | 22.78° C | 37% | 1020 hPa | 0 mm | - | 722 W/m² | - |
| 1777836610 | 21.67° C | 36% | 1020.1 hPa | 0 mm | - | 731 W/m² | - |
| 1777836306 | 21.67° C | 31% | 1020.5 hPa | 0 mm | - | 742 W/m² | - |
| 1777836002 | 21.67° C | 35% | 1020.3 hPa | 0 mm | - | 753 W/m² | - |
| 1777835699 | 21.67° C | 39% | 1020.4 hPa | 0 mm | - | 756 W/m² | - |
| 1777835395 | 21.67° C | 36% | 1020.4 hPa | 0 mm | - | 766 W/m² | - |
| 1777835093 | 21.67° C | 35% | 1020.5 hPa | 0 mm | - | 770 W/m² | - |
| 1777834790 | 22.22° C | 40% | 1020.4 hPa | 0 mm | - | 779 W/m² | - |
| 1777834486 | 21.67° C | 39% | 1020.5 hPa | 0 mm | - | 783 W/m² | - |
| 1777834186 | 21.67° C | 40% | 1020.5 hPa | 0 mm | - | 791 W/m² | - |
| 1777833882 | 21.67° C | 39% | 1020.7 hPa | 0 mm | - | 798 W/m² | - |
| 1777833578 | 21.67° C | 42% | 1020.8 hPa | 0 mm | - | 801 W/m² | - |
| 1777833275 | 20.56° C | 42% | 1020.9 hPa | 0 mm | - | 807 W/m² | - |
| 1777832972 | 20.56° C | 42% | 1021 hPa | 0 mm | - | 809 W/m² | - |
* Rain latest hour (hover to see other rain measurements)
** Current wind speed in m/s (hover to see current wind gust speed)